period_start,C,m1,H,J0,J1,J2,J3,J4,J5,JA,JB,JC,JD,JJ,JK,JN,#
2018-02-26 00:02:38,0.03,3.83,0.00,20.42,23.99,27.30,14.50,48.98,1045.91,2035.99,2100.50,2268.99,2548.97,599.77,618.49,35.40,0000 0000 0000 0000 000000
2018-02-26 00:07:39,0.06,3.84,0.00,20.42,23.97,27.27,14.52,48.92,1045.92,2035.99,2099.96,2268.50,2548.16,599.98,618.48,35.45,0000 0000 0000 0000 000000
2018-02-26 00:12:41,0.04,3.84,0.00,20.43,23.97,27.26,14.48,48.92,1045.92,2035.99,2099.12,2268.01,2547.93,600.00,618.57,35.50,0000 0000 0000 0000 000000
2018-02-26 00:17:42,0.07,3.84,0.00,20.44,23.95,27.24,14.53,48.88,1045.92,2036.00,2098.39,2267.72,2547.12,600.49,619.05,35.55,0000 0000 0000 0000 000000
2018-02-26 00:22:43,0.06,3.85,0.00,20.44,23.95,27.24,14.44,48.88,1045.91,2036.02,2097.61,2267.05,2546.75,599.68,618.22,35.60,0000 0000 0000 0000 000000
2018-02-26 00:27:44,0.02,3.85,0.00,20.44,23.95,27.23,14.48,48.95,1045.91,2036.02,2096.97,2266.83,2546.04,600.11,618.53,35.65,0000 0000 0000 0000 000000
2018-02-26 00:32:46,0.08,3.85,0.00,20.44,23.93,27.25,14.51,48.92,1045.91,2036.02,2096.10,2266.06,2545.44,599.85,618.38,35.70,0000 0000 0000 0000 000000
2018-02-26 00:37:47,0.05,3.85,0.00,20.46,23.92,27.24,14.45,48.83,1045.92,2036.07,2095.24,2265.81,2544.99,599.92,618.44,35.75,0000 0000 0000 0000 000000
2018-02-26 00:42:48,0.08,3.86,0.00,20.47,23.92,27.23,14.45,48.85,1045.92,2036.14,2094.75,2265.07,2544.26,599.90,618.34,35.80,0000 0000 0000 0000 000000
2018-02-26 00:47:49,0.03,3.86,0.00,20.49,23.92,27.23,14.51,49.01,1045.92,2036.17,2093.86,2264.80,2543.92,599.97,618.45,35.85,0000 0000 0000 0000 000000
2018-02-26 00:52:50,0.08,3.87,0.00,20.49,23.92,27.22,14.50,48.95,1045.92,2036.17,2093.02,2264.05,2543.10,600.14,618.54,35.90,0000 0000 0000 0000 000000
2018-02-26 00:57:51,0.07,3.87,0.00,20.50,23.92,27.21,14.45,48.89,1045.92,2036.20,2092.19,2263.78,2542.45,600.19,618.61,35.95,0000 0000 0000 0000 000000
2018-02-26 01:02:53,0.06,3.87,0.00,20.54,23.92,27.22,14.50,49.02,1045.91,2036.25,2091.36,2263.04,2541.86,599.89,618.14,36.01,0000 0000 0000 0000 000000
2018-02-26 01:07:54,0.10,3.88,0.00,20.55,23.92,27.22,14.45,48.97,1045.88,2036.37,2090.51,2262.47,2541.05,599.89,618.21,36.06,0000 0000 0000 0000 000000
2018-02-26 01:12:55,0.05,3.88,0.00,20.57,23.92,27.22,14.43,48.99,1045.81,2036.51,2089.83,2262.00,2540.36,599.76,617.92,36.11,0000 0000 0000 0000 000000
2018-02-26 01:17:56,0.05,3.88,0.00,20.60,23.92,27.23,14.49,49.03,1045.86,2036.27,2088.86,2261.20,2539.75,599.94,618.04,36.16,0000 0000 0000 0000 000000
2018-02-26 01:22:58,0.09,3.89,0.00,20.61,23.94,27.23,14.46,48.88,1045.83,2036.32,2087.91,2260.81,2539.04,599.93,618.10,36.21,0000 0000 0000 0000 000000
2018-02-26 01:27:59,0.10,3.89,0.00,20.62,23.95,27.24,14.47,49.13,1045.88,2036.62,2087.07,2260.06,2538.40,599.92,618.25,36.26,0000 0000 0000 0000 000000
2018-02-26 01:33:00,0.06,3.89,0.00,20.63,23.95,27.24,14.46,49.02,1045.72,2036.50,2086.42,2259.65,2537.66,599.69,617.80,36.31,0000 0000 0000 0000 000000
2018-02-26 01:38:01,0.06,3.90,0.00,20.67,23.97,27.25,14.48,49.02,1045.81,2036.29,2085.38,2258.79,2536.61,600.11,618.16,36.36,0000 0000 0000 0000 000000
2018-02-26 01:43:03,0.12,3.90,0.00,20.67,23.98,27.27,14.44,49.02,1045.84,2036.23,2083.94,2257.81,2535.44,600.08,618.12,36.41,0000 0000 0000 0000 000000
2018-02-26 01:48:04,0.13,3.91,0.00,20.71,24.00,27.28,14.42,48.99,1045.64,2036.10,2082.16,2256.61,2534.11,599.79,617.65,36.46,0000 0000 0000 0000 000000
2018-02-26 01:53:05,0.10,3.92,0.00,20.76,24.02,27.30,14.48,48.83,1045.49,2036.03,2080.92,2255.61,2532.72,600.00,617.66,36.51,0000 0000 0000 0000 000000
2018-02-26 01:58:07,0.12,3.92,0.00,20.79,24.03,27.32,14.40,48.81,1045.51,2036.00,2079.59,2254.54,2531.48,600.14,617.68,36.56,0000 0000 0000 0000 000000
2018-02-26 02:03:08,0.10,3.93,0.00,20.83,24.05,27.33,14.41,48.79,1045.50,2036.00,2078.08,2253.63,2530.36,600.16,617.61,36.61,0000 0000 0000 0000 000000
2018-02-26 02:08:10,0.12,3.93,0.00,20.85,24.06,27.34,14.42,48.83,1045.52,2036.00,2076.58,2252.61,2529.35,599.84,617.34,36.66,0000 0000 0000 0000 000000
2018-02-26 02:13:11,0.12,3.94,0.00,20.87,24.07,27.34,14.41,48.98,1045.48,2036.00,2074.94,2251.60,2528.24,599.88,617.28,36.71,0000 0000 0000 0000 000000
2018-02-26 02:18:12,0.12,3.95,0.00,20.91,24.10,27.36,14.47,48.93,1045.44,2036.00,2073.18,2250.51,2527.09,599.76,617.05,36.76,0000 0000 0000 0000 000000
2018-02-26 02:23:14,0.13,3.95,0.00,20.92,24.11,27.36,14.51,49.05,1045.44,2036.00,2071.64,2249.51,2525.82,600.42,617.84,36.81,0000 0000 0000 0000 000000
2018-02-26 02:28:15,0.11,3.96,0.00,20.92,24.12,27.37,14.38,48.99,1045.44,2036.00,2070.28,2248.55,2524.62,599.82,617.08,36.86,0000 0000 0000 0000 000000
2018-02-26 02:33:16,0.13,3.97,0.00,20.95,24.14,27.38,14.46,49.07,1045.43,2035.98,2068.70,2247.46,2523.37,600.07,617.21,36.92,0000 0000 0000 0000 000000
2018-02-26 02:38:17,0.12,3.97,0.00,20.99,24.15,27.40,14.40,49.00,1045.43,2035.98,2067.02,2246.37,2522.16,600.09,617.26,36.97,0000 0000 0000 0000 000000
2018-02-26 02:43:18,0.13,3.98,0.00,21.02,24.17,27.39,14.37,49.15,1045.43,2035.97,2065.23,2245.29,2520.98,599.73,616.78,37.02,0000 0000 0000 0000 000000
2018-02-26 02:48:19,0.13,3.99,0.00,21.06,24.19,27.42,14.43,49.22,1045.43,2035.93,2063.61,2244.15,2519.64,600.03,617.05,37.07,0000 0000 0000 0000 000000
2018-02-26 02:53:20,0.09,3.99,0.00,21.09,24.21,27.42,14.46,49.13,1045.43,2035.82,2062.24,2243.11,2518.29,600.26,617.10,37.12,0000 0000 0000 0000 000000
2018-02-26 02:58:22,0.08,4.00,0.00,21.11,24.23,27.42,14.48,49.18,1045.42,2035.43,2060.71,2242.08,2517.01,600.07,616.88,37.17,0000 0000 0000 0000 000000
2018-02-26 03:03:23,0.12,4.00,0.00,21.17,24.25,27.44,14.41,49.12,1045.42,2035.07,2058.93,2240.88,2515.72,599.95,616.72,37.22,0000 0000 0000 0000 000000
2018-02-26 03:08:24,0.14,4.01,0.00,21.19,24.27,27.45,14.45,49.14,1045.43,2035.01,2057.18,2239.67,2514.38,599.59,616.33,37.27,0000 0000 0000 0000 000000
2018-02-26 03:13:26,0.14,4.01,0.00,21.20,24.29,27.46,14.37,49.08,1045.43,2035.00,2055.41,2238.60,2512.90,599.70,616.45,37.32,0000 0000 0000 0000 000000
2018-02-26 03:18:27,0.15,4.02,0.00,21.22,24.31,27.50,14.45,49.02,1045.42,2035.00,2053.58,2237.41,2511.50,600.17,616.73,37.37,0000 0000 0000 0000 000000
2018-02-26 03:23:29,0.14,4.03,0.00,21.27,24.32,27.53,14.47,49.02,1045.41,2035.00,2051.78,2236.20,2510.00,600.31,616.86,37.42,0000 0000 0000 0000 000000
2018-02-26 03:28:30,0.14,4.04,0.00,21.30,24.35,27.53,14.46,49.08,1045.37,2034.99,2049.95,2234.99,2508.66,600.13,616.68,37.47,0000 0000 0000 0000 000000
2018-02-26 03:33:31,0.15,4.04,0.00,21.33,24.37,27.54,14.42,48.99,1045.32,2034.99,2048.05,2233.78,2507.38,599.91,616.24,37.52,0000 0000 0000 0000 000000
2018-02-26 03:38:32,0.13,4.05,0.00,21.34,24.38,27.56,14.40,49.01,1045.35,2034.97,2046.47,2232.65,2505.95,600.06,616.33,37.57,0000 0000 0000 0000 000000
2018-02-26 03:43:34,0.15,4.06,0.00,21.37,24.40,27.59,14.43,49.08,1045.41,2034.97,2044.60,2231.50,2504.64,599.71,616.01,37.62,0000 0000 0000 0000 000000
2018-02-26 03:48:35,0.13,4.07,0.00,21.40,24.42,27.61,14.46,49.04,1045.29,2034.87,2042.82,2230.33,2503.30,600.38,616.66,37.67,0000 0000 0000 0000 000000
2018-02-26 03:53:36,0.08,4.07,0.00,21.43,24.44,27.63,14.40,49.02,1045.24,2034.59,2041.18,2229.24,2502.01,600.17,616.24,37.72,0000 0000 0000 0000 000000
2018-02-26 03:58:37,0.11,4.08,0.00,21.47,24.45,27.64,14.42,48.97,1045.22,2034.42,2039.54,2228.17,2500.76,600.06,616.00,37.77,0000 0000 0000 0000 000000
2018-02-26 04:03:39,0.12,4.08,0.00,21.50,24.47,27.67,14.40,49.02,1045.03,2034.15,2037.85,2227.06,2499.54,600.00,615.88,37.83,0000 0000 0000 0000 000000
2018-02-26 04:08:40,0.11,4.09,0.00,21.54,24.49,27.69,14.37,49.01,1044.95,2034.04,2036.33,2225.97,2498.17,600.20,615.85,37.88,0000 0000 0000 0000 000000
2018-02-26 04:13:41,0.14,4.09,0.00,21.58,24.51,27.72,14.45,49.07,1044.95,2034.00,2034.60,2224.85,2496.92,600.15,615.84,37.93,0000 0000 0000 0000 000000
2018-02-26 04:18:43,0.14,4.10,0.00,21.60,24.52,27.74,14.47,49.02,1044.95,2034.00,2032.96,2223.74,2495.69,600.06,615.57,37.98,0000 0000 0000 0000 000000
2018-02-26 04:23:44,0.14,4.11,0.00,21.61,24.55,27.78,14.35,49.01,1044.94,2034.00,2031.16,2222.61,2494.61,599.82,615.30,38.03,0000 0000 0000 0000 000000
2018-02-26 04:28:45,0.14,4.12,0.00,21.64,24.57,27.80,14.38,49.00,1044.94,2034.00,2029.22,2221.47,2493.38,599.76,615.25,38.08,0000 0000 0000 0000 000000
2018-02-26 04:33:46,0.14,4.12,0.00,21.65,24.59,27.84,14.30,48.88,1044.94,2034.00,2027.38,2220.28,2491.97,600.12,615.58,38.13,0000 0000 0000 0000 000000
2018-02-26 04:38:48,0.12,4.13,0.00,21.67,24.61,27.87,14.36,48.86,1044.94,2033.99,2025.81,2219.29,2490.79,599.90,615.29,38.18,0000 0000 0000 0000 000000
2018-02-26 04:43:49,0.12,4.14,0.00,21.71,24.64,27.91,14.29,48.89,1044.94,2033.97,2024.21,2218.28,2489.57,599.90,615.23,38.23,0000 0000 0000 0000 000000
2018-02-26 04:48:50,0.11,4.14,0.00,21.72,24.67,27.93,14.37,48.98,1044.93,2033.90,2022.48,2217.25,2488.41,599.91,614.96,38.28,0000 0000 0000 0000 000000
2018-02-26 04:53:51,0.08,4.15,0.00,21.75,24.70,27.95,14.34,48.99,1044.90,2033.64,2020.90,2216.23,2487.13,600.04,615.25,38.33,0000 0000 0000 0000 000000
2018-02-26 04:58:53,0.07,4.15,0.00,21.78,24.73,28.00,14.40,49.00,1044.91,2033.17,2019.44,2215.16,2485.89,600.37,615.46,38.38,0000 0000 0000 0000 000000
2018-02-26 05:03:54,0.13,4.16,0.00,21.81,24.76,28.02,14.34,49.10,1044.92,2033.04,2017.70,2214.13,2484.75,600.13,615.21,38.43,0000 0000 0000 0000 000000
2018-02-26 05:08:55,0.14,4.16,0.00,21.83,24.79,28.04,14.31,49.19,1044.80,2033.01,2015.90,2212.99,2483.46,599.54,614.48,38.48,0000 0000 0000 0000 000000
2018-02-26 05:13:56,0.13,4.17,0.00,21.86,24.82,28.08,14.35,49.18,1044.75,2033.01,2014.29,2211.87,2482.28,600.11,615.00,38.53,0000 0000 0000 0000 000000
2018-02-26 05:18:58,0.21,4.18,0.00,21.87,24.86,28.10,14.35,49.02,1044.66,2033.00,2012.06,2210.35,2480.46,600.14,614.97,38.58,0000 0000 0000 0000 000000
2018-02-26 05:24:00,0.20,4.19,0.00,21.89,24.88,28.13,14.35,49.08,1044.75,2032.99,2009.66,2208.64,2478.52,600.03,614.78,38.63,0000 0000 0000 0000 000000
2018-02-26 05:29:01,0.21,4.20,0.00,21.92,24.91,28.17,14.36,48.99,1044.76,2032.98,2007.44,2206.93,2476.51,600.11,614.85,38.68,0000 0000 0000 0000 000000
2018-02-26 05:34:02,0.15,4.21,0.00,21.94,24.95,28.19,14.38,48.87,1044.67,2032.96,2005.34,2205.38,2474.89,600.47,615.06,38.74,0000 0000 0000 0000 000000
2018-02-26 05:39:04,0.17,4.22,0.00,21.95,24.97,28.22,14.42,48.98,1044.52,2032.82,2003.43,2203.91,2473.07,600.06,614.64,38.79,0000 0000 0000 0000 000000
2018-02-26 05:44:05,0.21,4.23,0.00,21.96,25.00,28.23,14.31,48.94,1044.55,2032.25,2000.66,2201.72,2470.44,599.68,614.21,38.84,0000 0000 0000 0000 000000
2018-02-26 05:49:06,0.17,4.24,0.00,21.95,25.03,28.27,14.40,48.97,1044.59,2032.04,1998.26,2199.92,2468.38,599.86,614.60,38.89,0000 0000 0000 0000 000000
2018-02-26 05:54:08,0.14,4.25,0.00,21.99,25.07,28.28,14.25,48.95,1044.48,2032.00,1996.61,2198.73,2466.99,600.07,614.53,38.94,0000 0000 0000 0000 000000
2018-02-26 05:59:09,0.13,4.25,0.00,21.96,25.10,28.32,14.32,49.15,1044.48,2032.00,1995.01,2197.68,2465.82,599.74,614.34,38.99,0000 0000 0000 0000 000000
2018-02-26 06:04:11,0.14,4.26,0.00,21.96,25.13,28.34,14.40,49.16,1044.46,2031.98,1993.26,2196.60,2464.64,600.07,614.68,39.04,0000 0000 0000 0000 000000
2018-02-26 06:09:12,0.13,4.27,0.00,21.90,25.16,28.36,14.51,49.15,1044.46,2031.95,1991.47,2195.53,2463.44,600.18,614.85,39.09,0000 0000 0000 0000 000000
2018-02-26 06:14:13,0.13,4.28,0.00,21.85,25.18,28.37,14.45,49.10,1044.45,2031.89,1989.67,2194.46,2462.14,600.20,614.91,39.14,0000 0000 0000 0000 000000
2018-02-26 06:19:15,0.17,4.28,0.00,21.77,25.20,28.40,14.42,49.22,1044.45,2031.74,1987.72,2193.05,2460.43,600.12,615.09,39.19,0000 0000 0000 0000 000000
2018-02-26 06:24:16,0.34,4.30,0.00,21.70,25.22,28.38,14.39,49.16,1044.45,2031.19,1983.77,2189.86,2456.80,599.80,614.91,39.24,0000 0000 0000 0000 000000
2018-02-26 06:29:17,0.39,4.32,0.00,21.64,25.22,28.47,14.38,49.19,1044.45,2031.05,1979.55,2186.47,2453.05,599.93,615.11,39.29,0000 0000 0000 0000 000000
2018-02-26 06:34:19,0.35,4.34,0.00,21.59,25.24,28.52,14.46,49.18,1044.45,2031.01,1975.57,2183.45,2449.65,600.31,615.59,39.34,0000 0000 0000 0000 000000
2018-02-26 06:39:20,0.36,4.35,0.00,21.57,25.24,28.45,14.39,49.07,1044.45,2031.01,1971.75,2180.45,2446.23,599.85,615.21,39.39,0000 0000 0000 0000 000000
2018-02-26 06:44:21,0.39,4.37,0.00,21.51,25.24,28.44,14.39,49.23,1044.42,2031.01,1967.67,2177.21,2442.62,599.76,615.08,39.44,0000 0000 0000 0000 000000
2018-02-26 06:49:22,0.42,4.39,0.00,21.34,25.22,28.51,14.51,49.12,1044.09,2031.01,1963.32,2173.84,2438.67,600.21,615.67,39.49,0000 0000 0000 0000 000000
2018-02-26 06:54:24,0.42,4.41,0.00,21.13,25.20,28.71,14.53,49.27,1044.04,2031.01,1958.90,2170.42,2434.80,600.04,616.06,39.54,0000 0000 0000 0000 000000
2018-02-26 06:59:25,0.43,4.44,0.00,21.08,25.15,28.67,14.52,49.35,1044.02,2031.04,1954.32,2166.90,2430.93,600.22,616.24,39.60,0000 0000 0000 0000 000000
2018-02-26 07:04:26,0.44,4.46,0.00,21.02,25.10,28.38,14.45,49.21,1043.98,2031.33,1950.03,2163.65,2427.35,599.95,616.22,39.65,0000 0000 0000 0000 000000
2018-02-26 07:09:27,0.39,4.48,0.00,20.97,25.03,28.23,14.47,49.30,1043.96,2031.94,1946.29,2160.95,2424.35,600.08,616.42,39.70,0000 0000 0000 0000 000000
2018-02-26 07:14:28,0.32,4.50,0.00,20.93,24.97,28.13,14.44,49.19,1043.96,2031.99,1942.82,2158.33,2421.38,599.91,616.28,39.75,0000 0000 0000 0000 000000
2018-02-26 07:19:30,0.32,4.51,0.00,20.91,24.90,28.03,14.47,49.22,1043.96,2032.00,1939.39,2155.77,2418.53,600.02,616.29,39.80,0000 0000 0000 0000 000000
2018-02-26 07:24:31,0.28,4.53,0.00,20.90,24.82,27.90,14.40,49.13,1043.95,2032.13,1936.52,2153.57,2416.01,599.73,616.37,39.85,0000 0000 0000 0000 000000
2018-02-26 07:29:32,0.28,4.54,0.00,20.88,24.75,27.78,14.41,49.13,1043.94,2032.76,1934.27,2151.86,2414.12,599.53,615.94,39.90,0000 0000 0000 0000 000000
2018-02-26 07:34:34,0.21,4.56,0.00,20.88,24.68,27.66,14.41,49.07,1043.90,2032.97,1932.03,2150.22,2412.26,599.99,616.43,39.95,0000 0000 0000 0000 000000
2018-02-26 07:39:35,0.21,4.56,0.00,20.86,24.62,27.55,14.46,48.98,1043.86,2032.99,1929.83,2148.63,2410.48,599.97,616.34,40.00,0000 0000 0000 0000 000000
2018-02-26 07:44:36,0.16,4.58,0.00,20.88,24.56,27.55,14.35,49.13,1043.75,2033.04,1927.99,2147.29,2408.84,599.31,615.81,40.05,0000 0000 0000 0000 000000
2018-02-26 07:49:38,0.24,4.58,0.00,20.85,24.50,27.58,14.51,49.12,1043.71,2033.53,1926.31,2145.98,2407.47,600.05,616.41,40.10,0000 0000 0000 0000 000000
2018-02-26 07:54:39,0.20,4.60,0.00,20.84,24.45,27.53,14.43,49.13,1043.81,2033.96,1924.60,2144.68,2405.89,599.96,616.35,40.15,0000 0000 0000 0000 000000
2018-02-26 07:59:40,0.16,4.61,0.00,20.86,24.41,27.53,14.30,48.98,1043.84,2033.99,1922.77,2143.41,2404.48,599.28,615.83,40.20,0000 0000 0000 0000 000000
2018-02-26 08:04:41,0.14,4.61,0.00,20.89,24.37,27.53,14.48,49.05,1043.62,2034.00,1921.02,2142.11,2403.05,599.93,616.12,40.25,0000 0000 0000 0000 000000
2018-02-26 08:09:43,0.17,4.62,0.00,20.91,24.33,27.57,14.36,49.05,1043.80,2034.08,1919.50,2140.88,2401.74,599.70,615.96,40.30,0000 0000 0000 0000 000000
2018-02-26 08:14:44,0.18,4.63,0.00,20.94,24.31,27.60,14.47,49.04,1043.64,2034.16,1917.78,2139.62,2400.26,600.19,616.37,40.35,0000 0000 0000 0000 000000
2018-02-26 08:19:45,0.21,4.64,0.00,20.96,24.28,27.48,14.39,49.06,1043.70,2034.59,1916.12,2138.36,2398.65,599.62,615.75,40.40,0000 0000 0000 0000 000000
2018-02-26 08:24:46,0.18,4.65,0.00,20.99,24.26,27.38,14.45,49.14,1043.78,2034.94,1914.54,2137.17,2397.43,600.30,616.51,40.45,0000 0000 0000 0000 000000
2018-02-26 08:29:47,0.11,4.66,0.00,21.00,24.25,27.35,14.46,49.10,1043.71,2034.98,1913.33,2136.37,2396.55,600.31,616.40,40.50,0000 0000 0000 0000 000000
2018-02-26 08:34:49,0.09,4.66,0.00,21.03,24.22,27.35,14.38,49.10,1043.57,2034.99,1912.28,2135.67,2395.56,599.99,615.92,40.56,0000 0000 0000 0000 000000
2018-02-26 08:39:50,0.14,4.67,0.00,21.05,24.22,27.35,14.40,49.06,1043.53,2034.99,1910.99,2134.54,2394.15,599.92,615.81,40.61,0000 0000 0000 0000 000000
2018-02-26 08:44:51,0.15,4.68,0.00,21.07,24.21,27.35,14.41,49.02,1043.50,2034.99,1909.39,2133.38,2392.80,599.99,615.68,40.66,0000 0000 0000 0000 000000
2018-02-26 08:49:52,0.14,4.68,0.00,21.07,24.20,27.35,14.42,49.04,1043.55,2034.99,1907.74,2132.32,2391.69,600.21,616.00,40.71,0000 0000 0000 0000 000000
2018-02-26 08:54:54,0.12,4.69,0.00,21.09,24.20,27.37,14.48,48.90,1043.75,2034.99,1906.51,2131.24,2390.38,600.25,616.13,40.76,0000 0000 0000 0000 000000
2018-02-26 08:59:55,0.20,4.70,0.00,21.09,24.20,27.40,14.40,48.87,1043.90,2034.99,1904.57,2129.88,2388.92,600.06,615.99,40.81,0000 0000 0000 0000 000000
2018-02-26 09:04:57,0.31,4.71,0.00,21.10,24.19,27.41,14.49,48.99,1043.92,2035.00,1901.33,2127.64,2386.47,599.99,616.06,40.86,0000 0000 0000 0000 000000
2018-02-26 09:09:58,0.41,4.73,0.00,21.12,24.19,27.42,14.49,49.08,1043.66,2035.00,1897.10,2124.51,2382.95,600.27,616.09,40.91,0000 0000 0000 0000 000000
2018-02-26 09:14:59,0.36,4.75,0.00,21.13,24.19,27.45,14.43,48.96,1043.56,2035.00,1893.33,2121.66,2379.61,600.08,615.82,40.96,0000 0000 0000 0000 000000
2018-02-26 09:20:01,0.28,4.77,0.00,21.14,24.20,27.46,14.44,48.89,1043.89,2035.00,1890.26,2119.26,2376.83,599.98,615.85,41.01,0000 0000 0000 0000 000000
2018-02-26 09:25:02,0.26,4.78,0.00,21.15,24.20,27.46,14.41,48.96,1043.95,2035.00,1887.75,2117.17,2374.36,600.06,615.71,41.06,0000 0000 0000 0000 000000
2018-02-26 09:30:03,0.31,4.80,0.00,21.12,24.20,27.48,14.38,48.99,1043.86,2035.00,1884.42,2114.87,2371.92,599.58,615.48,41.11,0000 0000 0000 0000 000000
2018-02-26 09:35:05,0.26,4.81,0.00,21.12,24.20,27.49,14.36,48.98,1043.88,2035.00,1881.40,2112.82,2369.67,599.91,615.78,41.16,0000 0000 0000 0000 000000
2018-02-26 09:40:06,0.23,4.83,0.00,21.14,24.21,27.51,14.42,48.97,1043.90,2035.00,1878.77,2111.06,2367.68,599.78,615.64,41.21,0000 0000 0000 0000 000000
2018-02-26 09:45:07,0.22,4.84,0.00,21.15,24.22,27.53,14.37,48.91,1043.84,2035.00,1876.42,2109.45,2365.90,599.99,615.81,41.26,0000 0000 0000 0000 000000
2018-02-26 09:50:08,0.23,4.85,0.00,21.14,24.22,27.53,14.49,48.92,1043.94,2035.00,1874.16,2107.68,2363.79,600.12,616.02,41.31,0000 0000 0000 0000 000000
2018-02-26 09:55:10,0.23,4.86,0.00,21.13,24.24,27.55,14.40,49.01,1043.94,2035.00,1871.73,2105.89,2361.77,600.03,615.98,41.36,0000 0000 0000 0000 000000
2018-02-26 10:00:11,0.18,4.87,0.00,21.15,24.25,27.55,14.34,48.91,1043.95,2035.00,1869.62,2104.50,2360.22,599.88,615.67,41.41,0000 0000 0000 0000 000000
2018-02-26 10:05:12,0.23,4.88,0.00,21.15,24.25,27.57,14.49,49.11,1043.92,2034.99,1867.35,2102.80,2358.32,599.85,615.78,41.47,0000 0000 0000 0000 000000
2018-02-26 10:10:13,0.26,4.89,0.00,21.16,24.27,27.58,14.34,48.98,1043.88,2034.99,1864.85,2101.00,2356.11,599.74,615.59,41.52,0000 0000 0000 0000 000000
2018-02-26 10:15:15,0.31,4.91,0.00,21.14,24.27,27.59,14.44,48.96,1043.94,2034.98,1861.65,2098.66,2353.38,600.43,616.29,41.57,0000 0000 0000 0000 000000
2018-02-26 10:20:16,0.26,4.92,0.00,21.14,24.28,27.58,14.45,48.97,1043.73,2034.96,1858.72,2096.52,2350.99,599.88,615.78,41.62,0000 0000 0000 0000 000000
2018-02-26 10:25:17,0.24,4.94,0.00,21.13,24.30,27.61,14.39,48.98,1043.57,2034.97,1856.30,2094.72,2348.86,599.59,615.29,41.67,0000 0000 0000 0000 000000
2018-02-26 10:30:19,0.25,4.95,0.00,21.13,24.30,27.63,14.41,48.96,1043.68,2034.96,1853.74,2092.86,2346.73,600.14,615.94,41.72,0000 0000 0000 0000 000000
2018-02-26 10:35:20,0.30,4.96,0.00,21.12,24.30,27.63,14.41,49.03,1043.64,2034.94,1850.77,2090.67,2344.30,600.04,615.79,41.77,0000 0000 0000 0000 000000
2018-02-26 10:40:21,0.28,4.98,0.00,21.10,24.32,27.65,14.39,49.06,1043.53,2034.82,1847.64,2088.41,2341.80,599.78,615.57,41.82,0000 0000 0000 0000 000000
2018-02-26 10:45:23,0.30,4.99,0.00,21.11,24.32,27.64,14.44,49.06,1043.49,2034.59,1844.52,2086.00,2338.92,600.02,615.70,41.87,0000 0000 0000 0000 000000
2018-02-26 10:50:24,0.29,5.01,0.00,21.11,24.32,27.64,14.35,49.06,1043.49,2034.27,1841.05,2083.46,2336.13,599.80,615.53,41.92,0000 0000 0000 0000 000000
2018-02-26 10:55:25,0.32,5.02,0.00,21.10,24.32,27.64,14.40,49.01,1043.48,2034.19,1837.88,2081.13,2333.38,600.00,615.65,41.97,0000 0000 0000 0000 000000
2018-02-26 11:00:27,0.32,5.04,0.00,21.10,24.32,27.66,14.42,48.88,1043.47,2034.15,1834.52,2078.74,2330.77,599.99,615.72,42.02,0000 0000 0000 0000 000000
2018-02-26 11:05:28,0.30,5.06,0.00,21.09,24.33,27.67,14.39,48.97,1043.49,2034.10,1831.24,2076.43,2328.28,600.04,615.83,42.07,0000 0000 0000 0000 000000
2018-02-26 11:10:30,0.30,5.07,0.00,21.09,24.33,27.68,14.38,49.05,1043.53,2034.04,1828.02,2074.16,2325.76,599.98,615.81,42.12,0000 0000 0000 0000 000000
2018-02-26 11:15:31,0.32,5.09,0.00,21.11,24.34,27.66,14.38,49.06,1043.72,2034.06,1824.78,2071.86,2323.23,599.73,615.39,42.17,0000 0000 0000 0000 000000
2018-02-26 11:20:32,0.30,5.10,0.00,21.11,24.34,27.66,14.52,49.11,1043.51,2034.07,1821.56,2069.52,2320.59,600.25,615.91,42.22,0000 0000 0000 0000 000000
2018-02-26 11:25:33,0.35,5.12,0.00,21.09,24.34,27.66,14.38,49.11,1043.49,2034.08,1818.14,2067.17,2317.95,599.93,615.63,42.28,0000 0000 0000 0000 000000
2018-02-26 11:30:34,0.34,5.14,0.00,21.09,24.34,27.67,14.45,49.12,1043.48,2034.07,1814.66,2064.63,2315.17,600.21,615.97,42.33,0000 0000 0000 0000 000000
2018-02-26 11:35:35,0.33,5.15,0.00,21.08,24.34,27.69,14.51,49.10,1043.47,2034.05,1811.44,2062.24,2312.33,600.33,616.17,42.38,0000 0000 0000 0000 000000
2018-02-26 11:40:37,0.34,5.17,0.00,21.07,24.34,27.68,14.39,48.88,1043.46,2034.03,1808.09,2059.72,2309.39,599.83,615.52,42.43,0000 0000 0000 0000 000000
2018-02-26 11:45:38,0.35,5.19,0.00,21.04,24.34,27.67,14.45,48.96,1043.39,2034.02,1804.74,2057.17,2306.42,600.11,615.96,42.48,0000 0000 0000 0000 000000
2018-02-26 11:50:39,0.32,5.21,0.00,21.06,24.34,27.67,14.49,48.95,1043.40,2034.01,1801.29,2054.73,2303.76,600.19,616.03,42.53,0000 0000 0000 0000 000000
2018-02-26 11:55:41,0.33,5.22,0.00,21.04,24.34,27.66,14.46,49.11,1043.44,2034.01,1797.90,2052.36,2301.25,600.03,615.90,42.58,0000 0000 0000 0000 000000
2018-02-26 12:00:42,0.36,5.24,0.00,21.02,24.33,27.66,14.31,48.91,1043.38,2034.00,1794.52,2049.83,2298.28,599.78,615.55,42.63,0000 0000 0000 0000 000000
2018-02-26 12:05:43,0.36,5.26,0.00,21.02,24.32,27.67,14.51,49.07,1043.40,2034.01,1790.82,2047.19,2295.33,600.41,616.29,42.68,0000 0000 0000 0000 000000
2018-02-26 12:10:44,0.37,5.28,0.00,21.00,24.32,27.65,14.46,49.09,1043.43,2034.00,1787.08,2044.66,2292.40,599.93,615.81,42.73,0000 0000 0000 0000 000000
2018-02-26 12:15:46,0.34,5.30,0.00,21.00,24.32,27.65,14.44,49.09,1043.45,2034.00,1783.73,2042.21,2289.52,599.77,615.62,42.78,0000 0000 0000 0000 000000
2018-02-26 12:20:47,0.35,5.31,0.00,20.99,24.32,27.66,14.46,49.25,1043.47,2034.03,1780.29,2039.73,2286.93,600.01,615.91,42.83,0000 0000 0000 0000 000000
2018-02-26 12:25:48,0.34,5.33,0.00,20.97,24.30,27.64,14.50,49.23,1043.40,2034.04,1776.90,2037.29,2284.23,599.93,615.90,42.88,0000 0000 0000 0000 000000
2018-02-26 12:30:49,0.29,5.35,0.00,20.97,24.30,27.64,14.37,49.06,1043.16,2034.02,1774.07,2035.13,2281.63,599.89,615.78,42.93,0000 0000 0000 0000 000000
2018-02-26 12:35:51,0.25,5.36,0.00,20.96,24.30,27.64,14.45,49.17,1043.02,2034.04,1771.48,2033.26,2279.61,600.11,615.81,42.98,0000 0000 0000 0000 000000
2018-02-26 12:40:52,0.25,5.37,0.00,20.95,24.30,27.63,14.44,49.14,1043.02,2034.04,1768.97,2031.60,2277.72,599.88,615.71,43.03,0000 0000 0000 0000 000000
2018-02-26 12:45:54,0.21,5.39,0.00,20.94,24.30,27.65,14.49,49.02,1042.99,2034.08,1767.03,2029.95,2275.79,599.96,615.75,43.08,0000 0000 0000 0000 000000
2018-02-26 12:50:55,0.24,5.40,0.00,20.95,24.29,27.63,14.39,49.04,1042.99,2034.08,1764.69,2028.27,2273.87,599.88,615.55,43.13,0000 0000 0000 0000 000000
2018-02-26 12:55:57,0.23,5.41,0.00,20.93,24.28,27.61,14.40,48.99,1042.77,2034.02,1762.51,2026.57,2271.86,599.69,615.25,43.18,0000 0000 0000 0000 000000